Location: Airlie Beach - Cannonvale QLD, Australia
(20.2768°S, 148.7558°E)
Time: 07:18:53
(UTC+10:00)

X-37B - Visible Passes

Search period start: 21 September 2020 00:00
Search period end: 01 October 2020 00:00
Orbit: 386 x 387 km, 45.0° (Epoch: 18 September)

Date Brightness Start Highest point End Pass type
(mag) Time Alt. Az. Time Alt. Az. Time Alt. Az.
21 Sep 1.1 19:13:45 10° SSW 19:16:34 44° SSE 19:16:34 44° SSE visible
22 Sep 3.4 19:52:11 10° W 19:53:38 18° WNW 19:53:38 18° WNW visible
23 Sep 1.0 18:53:07 10° SW 18:56:16 61° NW 18:58:31 17° NNE visible
25 Sep 3.0 18:33:03 10° W 18:35:37 22° NW 18:38:09 10° N visible
